sat.trackr.live / text

‹ back to catalog

STARLINK-34297

NORAD 64261 · 2025-120F

PAYLOAD ACTIVE UNKNOWN

§ Identity

Operator
Country
US
Launch date
2025-06-04
Launch site
AFWTR
Launch vehicle
Mass (kg)
RCS (m²)

Purposes: comms

External: N2YO · Heavens-Above · Gunter

§ Orbital elements

Epoch: 2026-09-20T08:51:28.926720Z

Period
93.85 min
Inclination
53.1610°
Eccentricity
0.0001278
Mean motion
15.34401546 rev/d
Perigee alt
461.8 km
Apogee alt
463.6 km
Semi-major
6,840.8 km
B*
4.2758e-4
RAAN
286.6663°
Arg perigee
86.2269°
Mean anomaly
273.8880°
Rev number
7,369

§ Raw data

STARLINK-342971 64261U 25120F   26263.36908480  .00014098  00000+0  42758-3 0  99962 64261  53.1610 286.6663 0001278  86.2269 273.8880 15.34401546 73699

JSON: /api/v1/satellites/64261 · /tle

For live sub-satellite position, see the globe view (requires WebGL).

§ Visibility from observer

Set your observer location to see the next 7 days of passes ≥ 10°. The values pass through the URL so the page stays shareable.

No JS? Fill the form by hand. The geolocation button needs JavaScript.